This demonstration page uses our WeatherBlox Daily Observations layout. Learn more.

Hourly Observations for May 18, 2018

Temp ( °F °C ) Dew Point ( °F °C ) Humidity (%) Winds ( mph kmh ) Pressure ( in mb ) Visibility ( mi km ) Precip ( " mm )
12:15 am 00:15 Cloudy with Light Rain 61 16 61 16 100 100 NE 3 6 30.09 1019 4 6.437376 0 0
12:35 am 00:35 Cloudy with Light Rain 61 16 61 16 100 100 Calm 30.09 1019 3 4.828032 0 0
12:55 am 00:55 Cloudy with Rain 61 16 61 16 100 100 NE 3 6 30.09 1019 4 6.437376 0 0
1:15 am 01:15 Cloudy with Rain 61 16 61 16 100 100 NE 5 7 30.09 1019 4 6.437376 0 0
1:35 am 01:35 Cloudy with Rain 61 16 61 16 100 100 NE 5 7 30.09 1019 4 6.437376 0 0
1:55 am 01:55 Cloudy with Rain 61 16 61 16 100 100 NE 6 9 30.09 1019 4 6.437376 0 0
2:15 am 02:15 Cloudy with Heavy Rain 61 16 61 16 100 100 NE 6 9 30.09 1019 3 4.828032 0 0
2:35 am 02:35 Cloudy with Heavy Rain 61 16 61 16 100 100 NE 7 11 30.09 1019 1.75 2.816352 0 0
2:55 am 02:55 Cloudy with Rain 61 16 61 16 100 100 NNE 5 7 30.09 1019 4 6.437376 0 0
3:15 am 03:15 Cloudy with Rain 61 16 61 16 100 100 NE 5 7 30.06 1018 5 8.04672 0 0
3:35 am 03:35 Cloudy with Light Rain 61 16 61 16 100 100 NE 5 7 30.09 1019 5 8.04672 0 0
3:55 am 03:55 Cloudy with Light Rain 61 16 61 16 100 100 NNE 6 9 30.09 1019 5 8.04672 0 0
4:15 am 04:15 Cloudy with Rain 61 16 61 16 100 100 NE 6 9 30.06 1018 5 8.04672 0 0
4:35 am 04:35 Cloudy with Light Rain 61 16 61 16 100 100 NNE 6 9 30.09 1019 7 11.265408 0 0
4:55 am 04:55 Cloudy with Light Rain 61 16 61 16 100 100 NE 6 9 30.09 1019 5 8.04672 0 0
5:15 am 05:15 Cloudy with Light Rain 61 16 61 16 100 100 NE 6 9 30.06 1018 5 8.04672 0 0
5:35 am 05:35 Cloudy 61 16 61 16 100 100 NNE 5 7 30.09 1019 7 11.265408 0 0
5:55 am 05:55 Cloudy with Mist and Fog 61 16 61 16 100 100 NNE 5 7 30.09 1019 5 8.04672 0 0
6:15 am 06:15 Cloudy with Mist and Fog 61 16 61 16 100 100 NNE 5 7 30.09 1019 4 6.437376 0 0
6:35 am 06:35 Cloudy with Rain 61 16 61 16 100 100 NE 5 7 30.09 1019 3 4.828032 0 0
6:55 am 06:55 Cloudy with Mist and Fog 61 16 61 16 100 100 NE 6 9 30.09 1019 4 6.437376 0 0
7:15 am 07:15 Cloudy with Drizzle 61 16 61 16 100 100 NE 6 9 30.09 1019 3 4.828032 0 0
7:35 am 07:35 Cloudy with Mist and Fog 61 16 61 16 100 100 NE 7 11 30.09 1019 4 6.437376 0 0
7:55 am 07:55 Cloudy with Mist and Fog 61 16 61 16 100 100 NE 7 11 30.09 1019 4 6.437376 0 0
8:15 am 08:15 Cloudy 61 16 61 16 100 100 NE 7 11 30.09 1019 7 11.265408 0 0
8:35 am 08:35 Cloudy 61 16 61 16 100 100 NNE 6 9 30.12 1020 10 16.09344 0 0
8:55 am 08:55 Cloudy 63 17 63 17 100 100 NE 5 7 30.12 1020 7 11.265408 0 0
9:15 am 09:15 Cloudy 63 17 63 17 100 100 NE 7 11 30.12 1020 10 16.09344 0 0
9:35 am 09:35 Cloudy 63 17 63 17 100 100 ENE 9 15 30.12 1020 10 16.09344 0 0
9:55 am 09:55 Cloudy 63 17 63 17 100 100 ENE 3 6 30.12 1020 10 16.09344 0 0
10:15 am 10:15 Cloudy 63 17 63 17 100 100 E 7 11 30.15 1021 10 16.09344 0 0
10:35 am 10:35 Cloudy 63 17 63 17 100 100 ENE 5 7 30.15 1021 10 16.09344 0 0
10:55 am 10:55 Cloudy with Light Rain 64 18 64 18 100 100 ENE 7 11 30.15 1021 5 8.04672 0 0
11:15 am 11:15 Cloudy with Light Drizzle 63 17 63 17 100 100 E 13 20 30.18 1022 5 8.04672 0 0
11:35 am 11:35 Cloudy with Light Rain 63 17 63 17 100 100 E 5 7 30.18 1022 5 8.04672 0 0
11:55 am 11:55 Cloudy with Light Drizzle 63 17 63 17 100 100 ENE 9 15 30.18 1022 5 8.04672 0 0
12:15 pm 12:15 Cloudy with Drizzle 63 17 63 17 100 100 E 7 11 30.15 1021 4 6.437376 0 0
12:35 pm 12:35 Cloudy with Rain 63 17 63 17 100 100 ENE 8 13 30.15 1021 4 6.437376 0 0
12:55 pm 12:55 Cloudy with Rain 63 17 63 17 100 100 ENE 10 17 30.15 1021 7 11.265408 0 0
1:15 pm 13:15 Cloudy with Rain 63 17 63 17 100 100 ENE 8 13 30.15 1021 3 4.828032 0 0
1:35 pm 13:35 Cloudy with Rain 61 16 61 16 100 100 ENE 12 19 30.15 1021 4 6.437376 0 0
1:55 pm 13:55 Cloudy with Light Rain 61 16 61 16 100 100 ENE 12 19 30.15 1021 5 8.04672 0 0
2:15 pm 14:15 Cloudy with Light Rain 61 16 61 16 100 100 ENE 8 13 30.15 1021 5 8.04672 0 0
2:35 pm 14:35 Cloudy with Light Rain 61 16 61 16 100 100 E 9 15 30.15 1021 5 8.04672 0 0
2:55 pm 14:55 Cloudy with Light Rain 61 16 61 16 100 100 E 9 15 30.15 1021 4 6.437376 0 0
3:15 pm 15:15 Cloudy with Light Rain 61 16 61 16 100 100 E 10 17 30.15 1021 4 6.437376 0 0
3:35 pm 15:35 Cloudy with Light Rain 61 16 61 16 100 100 E 9 15 30.15 1021 3 4.828032 0 0
3:55 pm 15:55 Cloudy with Light Rain 61 16 61 16 100 100 ENE 13 20 30.18 1022 5 8.04672 0 0
4:15 pm 16:15 Cloudy with Mist and Fog 59 15 59 15 100 100 E 14 22 30.18 1022 5 8.04672 0 0
4:35 pm 16:35 Cloudy 59 15 59 15 100 100 E 13 20 30.18 1022 10 16.09344 0 0
4:55 pm 16:55 Cloudy with Mist and Fog 59 15 59 15 100 100 ENE 14 22 30.18 1022 5 8.04672 0 0
5:15 pm 17:15 Cloudy 59 15 59 15 100 100 ENE 8 13 30.18 1022 7 11.265408 0 0
5:35 pm 17:35 Cloudy with Drizzle 57 14 57 14 100 100 NE 8 13 30.18 1022 2.5 4.02336 0 0
5:55 pm 17:55 Cloudy with Light Rain 55 13 55 13 100 100 ENE 10 17 30.18 1022 2.5 4.02336 0 0
6:15 pm 18:15 Cloudy with Rain 55 13 55 13 100 100 ENE 9 15 30.18 1022 3 4.828032 0 0
6:35 pm 18:35 Cloudy with Light Drizzle 55 13 55 13 100 100 E 9 15 30.18 1022 3 4.828032 0 0
6:55 pm 18:55 Cloudy with Rain 55 13 55 13 100 100 ENE 9 15 30.18 1022 4 6.437376 0 0
7:15 pm 19:15 Cloudy with Rain 55 13 55 13 100 100 ENE 7 11 30.21 1023 5 8.04672 0 0
7:35 pm 19:35 Cloudy with Rain 55 13 55 13 100 100 ENE 6 9 30.21 1023 7 11.265408 0 0
7:55 pm 19:55 Cloudy with Light Rain 55 13 55 13 100 100 E 12 19 30.21 1023 10 16.09344 0 0
8:15 pm 20:15 Cloudy with Light Rain 55 13 55 13 100 100 E 10 17 30.21 1023 10 16.09344 0 0
8:35 pm 20:35 Cloudy with Light Rain 55 13 55 13 100 100 ENE 9 15 30.21 1023 10 16.09344 0 0
8:55 pm 20:55 Cloudy with Rain 54 12 54 12 100 100 ENE 10 17 30.21 1023 10 16.09344 0 0
9:15 pm 21:15 Cloudy with Light Rain 54 12 54 12 100 100 E 15 24 30.21 1023 7 11.265408 0 0
9:35 pm 21:35 Cloudy with Rain 54 12 54 12 100 100 E 9 15 30.21 1023 7 11.265408 0 0
9:55 pm 21:55 Cloudy with Light Rain 54 12 54 12 100 100 E 5 7 30.24 1024 7 11.265408 0 0
10:15 pm 22:15 Cloudy with Light Rain 52 11 52 11 100 100 E 9 15 30.27 1025 10 16.09344 0 0
10:35 pm 22:35 Cloudy with Light Rain 52 11 52 11 100 100 E 7 11 30.27 1025 10 16.09344 0 0
10:55 pm 22:55 Cloudy with Light Rain 52 11 52 11 100 100 ENE 3 6 30.27 1025 10 16.09344 0 0
11:15 pm 23:15 Cloudy with Light Rain 52 11 52 11 100 100 NE 9 15 30.27 1025 7 11.265408 0 0
11:35 pm 23:35 Cloudy with Light Rain 52 11 52 11 100 100 ENE 9 15 30.27 1025 7 11.265408 0 0
11:55 pm 23:55 Cloudy with Rain 52 11 52 11 100 100 ENE 7 11 30.27 1025 7 11.265408 0 0

Powered by AerisWeather